GW5072 Weather Reports


time (UTC)temp
F
wind
direction
speed
knots
gust
knots
rain 1hr
in
rain 24hr
in
rain mn
in
humidity
%
barometer
mb
20260904062517 78 91 0.0 0.0 0.00 0.05 0.00 96 1013.5
20260904062010 78 90 0.0 0.0 0.00 0.05 0.00 96 1013.6
20260904061537 78 91 0.0 0.0 0.00 0.05 0.00 96 1013.7
20260904061014 78 90 0.0 0.0 0.00 0.05 0.00 96 1013.7
20260904060506 78 91 0.0 0.0 0.00 0.05 0.00 96 1013.7
20260904060029 77 91 0.0 0.0 0.00 0.06 0.00 96 1013.7
20260904055509 77 91 0.0 0.0 0.00 0.06 0.00 96 1013.9
20260904055005 78 91 0.0 0.0 0.00 0.06 0.00 96 1013.9
20260904054533 78 90 0.0 0.0 0.00 0.06 0.00 96 1013.9
20260904054009 77 91 0.0 0.0 0.00 0.06 0.00 96 1013.8
20260904053517 78 90 0.0 0.0 0.00 0.06 0.00 96 1013.7
20260904053028 78 90 0.0 0.0 0.00 0.06 0.00 96 1013.7
20260904052507 78 90 0.0 0.0 0.00 0.06 0.00 96 1013.7
20260904052014 77 91 0.0 0.0 0.00 0.06 0.00 96 1013.7
20260904051522 77 90 0.0 0.0 0.00 0.07 0.00 96 1013.8
20260904051004 77 91 0.0 0.0 0.00 0.07 0.00 96 1013.7
20260904050512 77 90 0.0 0.0 0.00 0.09 0.00 96 1013.7
20260904050017 78 90 0.0 0.0 0.00 0.10 0.00 96 1013.6
20260904045514 78 91 0.0 0.0 0.00 0.11 0.10 96 1013.6
20260904045012 78 91 0.0 0.0 0.00 0.11 0.10 96 1013.7
20260904044513 77 91 0.0 0.0 0.00 0.12 0.10 96 1013.8
20260904044013 77 90 0.0 0.0 0.00 0.12 0.10 96 1013.7
20260904043512 77 90 0.0 0.0 0.00 0.12 0.10 96 1013.6
20260904043032 77 91 0.0 0.0 0.00 0.12 0.10 95 1013.7
20260904042515 78 91 0.0 0.0 0.00 0.12 0.10 95 1013.7
20260904042011 78 91 0.0 0.0 0.00 0.12 0.10 96 1013.7
20260904041535 78 90 0.0 0.0 0.00 0.12 0.10 96 1013.6
20260904041016 77 91 0.0 0.0 0.00 0.12 0.10 96 1013.7
20260904040508 77 90 0.0 0.0 0.00 0.12 0.10 95 1013.7
20260904040032 77 90 0.0 0.0 0.00 0.12 0.10 95 1013.7
20260904035515 77 90 0.0 0.0 0.00 0.13 0.10 95 1013.8
20260904035013 77 91 0.0 0.0 0.00 0.13 0.10 95 1013.9
20260904034531 77 91 0.0 0.0 0.00 0.13 0.10 95 1013.8
20260904034012 77 90 0.0 0.0 0.00 0.13 0.10 95 1013.7
20260904033517 77 91 0.0 0.0 0.00 0.13 0.10 95 1013.5
20260904033027 77 90 0.0 0.0 0.00 0.13 0.10 95 1013.5
20260904032509 77 91 0.0 0.0 0.00 0.13 0.10 95 1013.7
20260904032017 77 91 0.0 0.0 0.00 0.13 0.10 95 1013.6
20260904031526 77 90 0.0 0.0 0.00 0.13 0.10 95 1013.5
20260904031020 77 91 0.0 0.0 0.00 0.13 0.10 95 1013.5
20260904030513 77 91 0.0 0.0 0.00 0.13 0.10 95 1013.5
20260904030024 77 91 0.0 0.0 0.00 0.13 0.10 95 1013.5
20260904025515 78 91 0.0 0.0 0.00 0.13 0.10 95 1013.4
20260904025015 78 91 0.0 0.0 0.00 0.13 0.10 95 1013.3
20260904024516 78 90 0.0 0.0 0.00 0.13 0.10 95 1013.4
20260904024017 78 90 0.0 0.0 0.00 0.13 0.10 95 1013.3
20260904023512 78 91 0.0 0.0 0.00 0.13 0.10 95 1013.2
20260904023034 78 90 0.0 0.0 0.00 0.13 0.10 95 1013.2
20260904022516 78 91 0.0 0.0 0.00 0.13 0.10 94 1013.1
20260904022009 78 91 0.0 0.0 0.00 0.13 0.10 94 1013.1
20260904021537 78 90 0.0 0.0 0.00 0.13 0.10 94 1013.0
20260904021017 78 91 0.0 0.0 0.00 0.13 0.10 94 1013.0
20260904020516 78 91 0.0 0.0 0.00 0.13 0.10 94 1012.9
20260904020011 78 91 0.0 0.0 0.00 0.13 0.10 94 1012.8
20260904015512 78 90 0.0 0.0 0.00 0.13 0.10 94 1012.9
20260904015010 78 91 0.0 0.0 0.00 0.13 0.10 94 1012.8
20260904014516 78 91 0.0 0.0 0.00 0.13 0.10 94 1012.8
20260904014012 78 91 0.0 0.0 0.00 0.13 0.10 94 1012.5
20260904013505 78 91 0.0 0.0 0.00 0.13 0.10 94 1012.6
20260904013006 78 91 0.0 0.0 0.00 0.13 0.10 94 1012.7
20260904012508 78 91 0.0 0.0 0.00 0.13 0.10 94 1012.5
20260904012004 78 90 0.0 0.0 0.00 0.13 0.10 94 1012.5
20260904011529 78 91 0.0 0.0 0.00 0.13 0.10 93 1012.5
20260904011005 78 90 0.0 0.0 0.00 0.13 0.10 93 1012.6
20260904010503 78 91 0.0 0.0 0.00 0.13 0.10 93 1012.6
20260904010024 78 91 0.0 0.0 0.00 0.13 0.10 93 1012.6
20260904005507 78 91 0.0 0.0 0.00 0.13 0.10 93 1012.5
20260904005003 78 91 0.0 0.0 0.00 0.13 0.10 93 1012.6
20260904004520 78 90 0.0 0.0 0.00 0.13 0.10 92 1012.6
20260904004006 78 91 0.0 0.0 0.00 0.14 0.10 92 1012.6
20260904003512 78 91 0.0 0.0 0.00 0.16 0.10 92 1012.6
20260904003018 79 91 0.0 0.0 0.00 0.28 0.10 92 1012.7
20260904002503 79 91 0.0 0.0 0.00 0.69 0.10 92 1012.7
20260904002016 79 91 0.0 0.0 0.00 1.00 0.10 92 1012.7
20260904001516 79 91 0.0 0.0 0.00 1.03 0.10 91 1012.7
20260904001015 79 91 0.0 0.0 0.00 1.03 0.10 91 1012.9
20260904000511 79 91 0.0 0.0 0.00 1.03 0.10 91 1012.8
20260904000014 79 91 0.0 0.0 0.00 1.03 0.10 91 1012.8
20260903235509 79 91 0.0 0.0 0.00 1.03 0.10 91 1012.8
20260903235008 79 91 0.0 0.0 0.00 1.03 0.10 91 1012.9
20260903234509 79 90 0.0 0.0 0.00 1.03 0.10 91 1013.0
20260903234013 79 91 0.0 0.0 0.00 1.03 0.10 91 1012.9
20260903233506 79 91 0.0 0.0 0.00 1.03 0.10 91 1013.0
20260903233029 79 91 0.0 0.0 0.00 1.03 0.10 90 1013.0
20260903232510 79 91 0.0 0.0 0.00 1.03 0.10 91 1013.1
20260903232005 79 67 0.0 0.0 0.00 1.03 0.10 91 1013.1
20260903231528 79 67 0.0 0.0 0.00 1.03 0.10 90 1013.1
20260903231008 79 67 0.0 0.0 0.00 1.03 0.10 91 1013.1
20260903230503 79 67 0.0 0.0 0.00 1.03 0.10 91 1013.1
20260903230027 79 67 0.0 0.0 0.00 1.03 0.10 91 1013.2
20260903225508 79 65 0.0 0.0 0.00 1.03 0.10 91 1013.0
20260903225018 79 65 0.0 0.0 0.00 1.03 0.10 91 1013.1
20260903224520 79 65 0.0 0.0 0.00 1.03 0.10 91 1013.1
20260903224003 79 62 0.0 0.0 0.00 1.03 0.10 91 1013.1
20260903223515 79 60 0.0 0.0 0.00 1.03 0.10 91 1013.0
20260903223022 78 83 0.0 0.0 0.00 1.03 0.10 91 1012.9
20260903222504 78 72 0.0 0.0 0.00 1.03 0.10 91 1012.8
20260903222013 79 76 0.0 0.0 0.00 1.03 0.10 91 1013.0
20260903221522 79 75 0.0 0.0 0.00 1.03 0.10 92 1013.1
20260903221013 78 75 0.0 0.0 0.00 1.03 0.10 93 1013.0
20260903220515 78 75 0.0 0.0 0.00 1.03 0.10 92 1013.1
20260903220012 78 82 0.0 0.0 0.00 1.03 0.10 93 1013.2
20260903215516 78 84 0.0 0.0 0.00 1.03 0.10 93 1013.3
20260903215010 78 84 0.0 0.0 0.00 1.03 0.10 94 1013.4
20260903214533 78 84 0.0 0.0 0.00 1.03 0.10 94 1013.5
20260903214020 77 84 0.0 0.0 0.00 1.03 0.10 94 1013.5
20260903213511 77 84 0.0 0.0 0.00 1.03 0.10 95 1013.5
20260903213029 77 84 0.0 0.0 0.00 1.03 0.10 95 1013.6
20260903212512 76 84 0.0 0.0 0.00 1.03 0.10 95 1013.6
20260903212009 76 84 0.0 0.0 0.00 1.03 0.10 95 1013.8
20260903211528 76 84 0.0 0.0 0.00 1.03 0.10 95 1013.8
20260903211009 76 84 0.0 0.0 0.00 1.03 0.10 95 1013.9
20260903210517 76 84 0.0 0.0 0.00 1.03 0.10 95 1014.0
20260903210028 76 84 0.0 0.0 0.00 1.03 0.10 95 1013.9
20260903205508 76 84 0.0 0.0 0.00 1.03 0.10 95 1014.1
20260903205014 76 84 0.0 0.0 0.00 1.03 0.10 95 1014.0
20260903204528 76 84 0.0 0.0 0.00 1.03 0.10 95 1014.0
20260903204007 76 84 0.0 0.0 0.00 1.03 0.10 95 1014.1
20260903203512 76 84 0.0 0.0 0.00 1.03 0.10 95 1014.2
20260903203018 76 84 0.0 0.0 0.00 1.03 0.10 95 1014.0
20260903202516 76 84 0.0 0.0 0.00 1.03 0.10 95 1014.1
20260903202012 76 84 0.0 0.0 0.00 1.03 0.10 95 1014.2
20260903201517 76 84 0.0 0.0 0.00 1.03 0.10 95 1014.2
20260903201018 76 84 0.0 0.0 0.00 1.03 0.10 95 1014.2
20260903200513 76 84 0.0 0.0 0.00 1.03 0.10 95 1014.1
20260903200033 76 84 0.0 0.0 0.00 1.03 0.10 96 1014.0
20260903195514 76 84 0.0 0.0 0.00 1.03 0.10 96 1014.1
20260903195015 76 84 0.0 0.0 0.00 1.03 0.10 95 1014.1
20260903194531 76 84 0.0 0.0 0.00 1.03 0.10 95 1014.1
20260903194013 76 84 0.0 0.0 0.00 1.03 0.10 95 1014.2
20260903193509 76 84 0.0 0.0 0.00 1.03 0.10 95 1014.2
20260903193032 76 84 0.0 0.0 0.00 1.03 0.10 95 1014.4
20260903192510 76 84 0.0 0.0 0.00 1.03 0.10 95 1014.6
20260903192014 76 84 0.0 0.0 0.01 1.03 0.10 95 1014.8
20260903191528 76 84 0.0 0.0 0.04 1.03 0.10 95 1015.0
20260903191012 76 84 0.0 0.0 0.05 1.03 0.10 95 1014.9
20260903190513 75 83 0.0 0.0 0.05 1.03 0.10 94 1014.7
20260903190031 76 81 0.0 0.0 0.05 1.03 0.10 94 1014.7
20260903185509 75 44 0.0 0.0 0.05 1.03 0.10 94 1014.8
20260903185013 75 84 0.0 0.0 0.05 1.03 0.10 94 1015.0
20260903184527 75 85 0.0 0.0 0.05 1.03 0.10 93 1015.1
20260903184017 75 90 0.0 0.0 0.05 1.03 0.10 92 1015.2
20260903183513 76 94 0.0 0.0 0.05 1.03 0.10 91 1015.2
20260903183022 76 86 0.0 0.0 0.05 1.03 0.10 90 1015.3
20260903182519 77 84 0.0 0.9 0.05 1.03 0.10 88 1015.2
20260903182013 78 118 0.0 0.9 0.04 1.02 0.09 86 1015.3
20260903181520 80 70 0.0 0.9 0.01 0.99 0.06 88 1015.2
20260903181016 81 338 0.0 0.9 0.00 0.98 0.05 86 1015.2
20260903180514 82 194 0.0 0.0 0.00 0.98 0.05 85 1015.3
20260903180045 83 194 0.0 0.0 0.00 0.98 0.05 82 1015.3
20260903175515 83 194 0.0 0.0 0.00 0.98 0.05 81 1015.2
20260903175011 84 179 0.0 0.0 0.00 0.98 0.05 81 1015.1
20260903174535 84 155 0.0 0.0 0.00 0.98 0.05 88 1015.0
20260903174013 84 155 0.0 0.0 0.00 0.98 0.05 87 1015.0
20260903173520 84 211 0.0 0.0 0.00 0.98 0.05 87 1015.1
20260903173030 84 211 0.0 0.0 0.00 0.98 0.05 86 1015.0
20260903172511 85 212 0.0 0.0 0.00 0.98 0.05 86 1014.9
20260903172020 85 210 0.0 0.0 0.00 0.98 0.05 85 1014.9
20260903171540 85 210 0.0 0.0 0.00 0.98 0.05 86 1014.9
20260903171011 85 210 0.0 0.0 0.00 0.98 0.05 85 1014.8
20260903170518 85 210 0.0 0.0 0.00 0.98 0.05 85 1014.8
20260903170012 85 213 0.0 0.0 0.00 0.98 0.05 85 1015.0
20260903165510 85 214 0.0 0.0 0.00 0.98 0.05 87 1015.0
20260903165004 85 212 0.0 0.0 0.00 0.98 0.05 89 1015.0
20260903164525 84 212 0.0 0.9 0.00 0.98 0.05 90 1015.1
20260903164008 84 212 0.0 1.7 0.00 0.98 0.05 91 1015.3
20260903163505 84 208 0.0 1.7 0.00 0.98 0.05 90 1015.3
20260903163027 84 220 0.0 0.0 0.00 0.98 0.05 92 1015.1
20260903162506 83 220 0.0 0.0 0.00 0.98 0.05 92 1014.9
20260903162004 83 329 0.0 0.0 0.00 0.98 0.05 94 1014.8
20260903161521 82 330 0.0 0.0 0.00 0.98 0.05 94 1014.8
20260903161005 82 329 0.0 0.0 0.00 0.98 0.05 95 1015.0
20260903160514 82 329 0.0 0.0 0.00 0.98 0.05 95 1015.1
20260903160021 82 329 0.0 0.0 0.00 0.98 0.05 96 1015.1
20260903155504 82 329 0.0 0.0 0.00 0.98 0.05 96 1015.2
20260903155011 82 333 0.0 0.0 0.00 0.98 0.05 96 1015.1
20260903154514 82 334 0.0 0.0 0.00 0.98 0.05 97 1015.2
20260903154015 81 334 0.0 0.0 0.00 0.98 0.05 97 1015.2
20260903153509 81 333 0.0 0.0 0.00 0.98 0.05 97 1015.2
20260903153012 81 334 0.0 0.0 0.00 0.98 0.05 97 1015.3
20260903152512 81 334 0.0 0.0 0.00 0.98 0.05 97 1015.3
20260903152008 81 334 0.0 0.0 0.00 0.98 0.05 97 1015.3
20260903151513 81 334 0.0 0.0 0.00 0.98 0.05 98 1015.3
20260903151012 80 334 0.0 0.0 0.00 0.98 0.05 97 1015.3
20260903150506 80 334 0.0 0.0 0.00 0.98 0.05 98 1015.4
20260903150055 80 334 0.0 0.0 0.00 0.98 0.05 98 1015.5
20260903145509 80 334 0.0 0.0 0.00 0.98 0.05 98 1015.4
20260903145003 80 334 0.0 0.0 0.00 0.98 0.05 98 1015.5
20260903144534 80 334 0.0 0.0 0.00 0.98 0.05 98 1015.5
20260903144012 80 334 0.0 0.0 0.00 0.98 0.05 98 1015.5
20260903143504 80 334 0.0 0.0 0.00 0.98 0.05 98 1015.6
20260903143029 79 334 0.0 0.0 0.00 0.98 0.05 98 1015.6
20260903142506 79 334 0.0 0.0 0.00 0.98 0.05 98 1015.5
20260903142014 79 334 0.0 0.0 0.00 0.98 0.05 98 1015.4
20260903141528 79 334 0.0 0.0 0.00 0.98 0.05 98 1015.5
20260903141003 79 334 0.0 0.0 0.00 0.98 0.05 98 1015.4
20260903140513 79 334 0.0 0.0 0.00 0.98 0.05 98 1015.3
20260903140034 79 334 0.0 0.0 0.00 0.98 0.05 98 1015.2
20260903135516 79 334 0.0 0.0 0.00 0.98 0.05 98 1015.1
20260903135013 79 334 0.0 0.0 0.00 0.98 0.05 98 1015.1
20260903134529 78 334 0.0 0.0 0.00 0.98 0.05 98 1015.1
20260903134019 78 334 0.0 0.0 0.00 0.98 0.05 98 1015.1
20260903133512 78 334 0.0 0.0 0.00 0.98 0.05 98 1015.0
20260903133030 78 334 0.0 0.0 0.00 0.98 0.05 98 1015.0
20260903132513 78 334 0.0 0.0 0.00 0.98 0.05 98 1015.0
20260903132018 78 334 0.0 0.0 0.00 0.98 0.05 98 1014.9
20260903131532 78 334 0.0 0.0 0.00 0.98 0.05 98 1015.0
20260903131012 78 334 0.0 0.0 0.00 0.98 0.05 98 1014.9
20260903130515 78 314 0.0 0.0 0.00 0.98 0.05 98 1015.0
20260903130031 78 314 0.0 0.0 0.00 0.98 0.05 98 1014.9
20260903125510 78 314 0.0 0.0 0.00 0.98 0.05 98 1014.8
20260903125015 78 314 0.0 0.0 0.00 0.98 0.05 98 1014.7
20260903124533 77 314 0.0 0.0 0.00 0.98 0.05 98 1014.6
20260903124017 77 314 0.0 0.0 0.00 0.98 0.05 98 1014.5
20260903123519 77 314 0.0 0.0 0.00 0.98 0.05 98 1014.5
20260903123034 77 314 0.0 0.0 0.00 0.98 0.05 98 1014.4
20260903122516 77 314 0.0 0.0 0.00 0.98 0.05 98 1014.3
20260903122016 77 314 0.0 0.0 0.00 0.98 0.05 98 1014.2
20260903121527 77 314 0.0 0.0 0.00 0.98 0.05 97 1014.1
20260903121017 77 314 0.0 0.0 0.00 0.98 0.05 97 1014.1
20260903120518 77 314 0.0 0.0 0.00 0.98 0.05 97 1014.1
20260903120031 77 314 0.0 0.0 0.00 0.98 0.05 97 1014.1
20260903115514 77 314 0.0 0.0 0.00 0.98 0.05 97 1014.1
20260903115012 77 314 0.0 0.0 0.00 0.98 0.05 98 1014.0
20260903114531 77 314 0.0 0.0 0.00 0.98 0.05 97 1014.0
20260903114014 77 314 0.0 0.0 0.00 0.98 0.05 97 1014.0
20260903113512 77 314 0.0 0.0 0.00 0.98 0.05 97 1014.0
20260903113031 77 314 0.0 0.0 0.00 0.98 0.05 97 1014.0
20260903112516 77 314 0.0 0.0 0.00 0.98 0.05 97 1014.0
20260903112016 77 314 0.0 0.0 0.00 0.98 0.05 97 1014.0
20260903111533 77 314 0.0 0.0 0.00 0.98 0.05 97 1014.1
20260903111013 77 314 0.0 0.0 0.00 0.98 0.05 97 1014.0
20260903110517 77 314 0.0 0.0 0.00 0.98 0.05 97 1014.0
20260903110007 77 314 0.0 0.0 0.00 0.98 0.05 97 1014.0
20260903105513 78 314 0.0 0.0 0.00 0.98 0.05 97 1013.8
20260903105008 77 314 0.0 0.0 0.00 0.98 0.05 97 1013.7
20260903104528 77 314 0.0 0.0 0.00 0.98 0.05 97 1013.7
20260903104012 77 314 0.0 0.0 0.00 0.98 0.05 97 1013.7
20260903103506 77 314 0.0 0.0 0.00 0.98 0.05 97 1013.7
20260903103028 77 314 0.0 0.0 0.00 0.98 0.05 97 1013.8
20260903102508 77 314 0.0 0.0 0.00 0.98 0.05 97 1013.8
20260903102004 78 314 0.0 0.0 0.00 0.98 0.05 97 1013.7
20260903101525 78 314 0.0 0.0 0.00 0.98 0.05 97 1013.7
20260903101012 78 314 0.0 0.0 0.00 0.98 0.05 97 1013.6
20260903100515 78 314 0.0 0.0 0.00 0.98 0.05 97 1013.6
20260903100030 78 314 0.0 0.0 0.00 0.98 0.05 97 1013.6
20260903095506 78 314 0.0 0.0 0.00 0.98 0.05 97 1013.6
20260903095014 78 314 0.0 0.0 0.00 0.98 0.05 97 1013.6
20260903094520 78 314 0.0 0.0 0.00 0.98 0.05 97 1013.6
20260903094005 78 314 0.0 0.0 0.00 0.98 0.05 97 1013.6
20260903093513 78 314 0.0 0.0 0.00 0.98 0.05 97 1013.6
20260903093014 78 314 0.0 0.0 0.00 0.98 0.05 97 1013.6
20260903092519 78 314 0.0 0.0 0.00 0.98 0.05 97 1013.6
20260903092015 78 314 0.0 0.0 0.00 0.98 0.05 97 1013.6
20260903091517 78 314 0.0 0.0 0.00 0.98 0.05 97 1013.6
20260903091012 78 314 0.0 0.0 0.00 0.98 0.05 97 1013.6
20260903090510 78 314 0.0 0.0 0.00 0.98 0.05 97 1013.6
20260903090032 78 314 0.0 0.0 0.00 0.98 0.05 97 1013.5
20260903085513 78 314 0.0 0.0 0.00 0.98 0.05 97 1013.6
20260903085012 78 314 0.0 0.0 0.00 0.98 0.05 97 1013.6
20260903084541 78 314 0.0 0.0 0.00 0.98 0.05 97 1013.7
20260903084009 78 314 0.0 0.0 0.00 0.98 0.05 97 1013.6
20260903083506 78 314 0.0 0.0 0.00 0.98 0.05 97 1013.6
20260903083027 78 314 0.0 0.0 0.00 0.98 0.05 97 1013.5
20260903082511 78 314 0.0 0.0 0.00 0.98 0.05 97 1013.6
20260903082017 78 314 0.0 0.0 0.00 0.98 0.05 97 1013.5
20260903081524 78 314 0.0 0.0 0.00 0.98 0.05 97 1013.5
20260903081006 78 314 0.0 0.0 0.00 0.98 0.05 97 1013.5
20260903080516 78 314 0.0 0.0 0.00 0.98 0.05 97 1013.5
20260903080024 78 314 0.0 0.0 0.00 0.98 0.05 97 1013.4
20260903075503 78 314 0.0 0.0 0.00 0.98 0.05 97 1013.4
20260903075015 78 314 0.0 0.0 0.00 0.98 0.05 97 1013.3
20260903074520 78 314 0.0 0.0 0.00 0.98 0.05 97 1013.3
20260903074015 78 314 0.0 0.0 0.00 0.98 0.05 97 1013.2
20260903073515 78 314 0.0 0.0 0.00 0.98 0.05 97 1013.2
20260903073017 78 314 0.0 0.0 0.00 0.98 0.05 97 1013.2
20260903072515 78 313 0.0 0.0 0.00 0.98 0.05 97 1013.3
20260903072011 78 314 0.0 0.0 0.00 0.98 0.05 97 1013.3
20260903071514 78 86 0.0 0.0 0.00 0.98 0.05 97 1013.3
20260903071011 78 86 0.0 0.0 0.00 0.98 0.05 97 1013.4
20260903070510 78 86 0.0 0.0 0.00 0.98 0.05 97 1013.4
20260903070033 78 86 0.0 0.0 0.01 0.98 0.05 97 1013.4
20260903065512 78 86 0.0 0.0 0.01 0.98 0.05 97 1013.5
20260903065013 78 86 0.0 0.0 0.01 0.98 0.05 97 1013.6
20260903064531 78 86 0.0 0.0 0.01 0.98 0.05 97 1013.6
20260903064011 78 86 0.0 0.0 0.01 0.98 0.05 97 1013.6
20260903063522 78 86 0.0 0.0 0.01 0.98 0.05 97 1013.6
20260903063031 78 86 0.0 0.0 0.01 0.98 0.05 97 1013.6